Location: Asheville, NC
(35.6000°N, 82.5500°W)
Time: 02:41:49
(UTC-04:00)

Vanguard 1 - Pass Details

Date: 11 March 2018
Orbit: 650 x 3833 km, 34.3° (Epoch: 20 June)

Event Time Altitude Azimuth Distance (km) Brightness Sun altitude
Rises 09:26:42 0° 224° (SW) 7,050 14.2 19.1°
Reaches altitude 10° 09:31:07 10° 220° (SW) 6,327 14.0 19.9°
Maximum altitude 09:52:27 57° 148° (SSE) 4,251 14.2 24.0°
Drops below altitude 10° 10:12:55 10° 77° (ENE) 6,138 15.0 27.7°
Sets 10:17:04 0° 74° (ENE) 6,842 15.0 28.5°
